Weather History for Caldwell, NJ

Change the Weather History Date:

Tuesday, April 2, 2013

  Actual Average Record
Temperature  
Mean Temperature 36 °F -  
Max Temperature 43 °F 57 °F 79 °F (1978)
Min Temperature 28 °F 34 °F 19 °F (1964)
Degree Days  
Heating Degree Days 30    
Moisture  
Dew Point 10 °F    
Average Humidity 36    
Maximum Humidity 63    
Minimum Humidity 23    
Precipitation  
Precipitation 0.00 in - - ()
Sea Level Pressure  
Sea Level Pressure 30.02 in    
Wind  
Wind Speed 8 mph (WNW)    
Max Wind Speed 21 mph    
Max Gust Speed 30 mph    
Visibility 10 miles    
Events      
Averages and records for this station are not official NWS values.
T = Trace of Precipitation, MM = Missing Value Source: NWS Daily Summary

Daily Weather History Graph

Daily Weather History Graph

Search for Another Location

Airport:

Trip Planner

Search our weather history database for the weather conditions in past years. The results will help you decide how hot, cold, wet, or windy it might be!

Date:

Astronomy

Apr. 02, 2013 Rise Set
Actual Time 6:38 AM EDT 7:23 PM EDT
Civil Twilight 6:10 AM EDT 7:51 PM EDT
Nautical Twilight 5:38 AM EDT 8:23 PM EDT
Astronomical Twilight 5:04 AM EDT 8:58 PM EDT
Moon 1:27 AM EDT (4/2) 11:25 AM EDT (4/2)
Length of Visible Light 13h 40m
Length of Day
12h 44m
Waning Gibbous, 56% of the Moon is Illuminated
Apr 2
Waning Gibbous
Apr 3
Last Quarter
Apr 10
New
Apr 18
First Quarter
Apr 25
Full

Hourly Weather History & Observations

Time (EDT) Temp. Windchill Dew Point Humidity Pressure Visibility Wind Dir Wind Speed Gust Speed Precip Events Conditions
12:53 AM 35.1 °F 29.3 °F 10.9 °F 37% 29.96 in 10.0 mi NW 6.9 mph - N/A   Clear
1:53 AM 34.0 °F 29.8 °F 10.9 °F 38% 29.97 in 10.0 mi WNW 4.6 mph - N/A   Clear
2:53 AM 32.0 °F 28.7 °F 12.0 °F 44% 29.96 in 10.0 mi WNW 3.5 mph - N/A   Clear
3:53 AM 28.9 °F - 12.9 °F 51% 29.96 in 10.0 mi Calm Calm - N/A   Clear
4:53 AM 28.0 °F - 17.1 °F 63% 29.97 in 10.0 mi Calm Calm - N/A   Clear
5:53 AM 28.0 °F - 14.0 °F 56% 29.99 in 10.0 mi Calm Calm - N/A   Clear
6:53 AM 30.0 °F 26.5 °F 12.9 °F 49% 30.01 in 10.0 mi WNW 3.5 mph - N/A   Clear
7:53 AM 33.1 °F 25.5 °F 14.0 °F 46% 30.03 in 10.0 mi WNW 9.2 mph - N/A   Partly Cloudy
8:53 AM 34.0 °F 27.2 °F 14.0 °F 44% 30.05 in 10.0 mi NNW 8.1 mph 17.3 mph N/A   Clear
9:53 AM 34.0 °F 24.6 °F 12.0 °F 40% 30.05 in 10.0 mi NW 13.8 mph 21.9 mph N/A   Mostly Cloudy
10:53 AM 36.0 °F 27.1 °F 10.9 °F 36% 30.05 in 10.0 mi NW 13.8 mph 23.0 mph N/A   Mostly Cloudy
11:53 AM 37.9 °F 28.9 °F 8.1 °F 29% 30.04 in 10.0 mi West 16.1 mph 26.5 mph N/A   Partly Cloudy
12:53 PM 39.9 °F 30.2 °F 9.0 °F 28% 30.02 in 10.0 mi WNW 20.7 mph 29.9 mph N/A   Scattered Clouds
1:53 PM 42.1 °F 33.1 °F 8.1 °F 25% 30.00 in 10.0 mi WNW 20.7 mph 29.9 mph N/A   Scattered Clouds
2:53 PM 42.1 °F 33.9 °F 7.0 °F 24% 30.00 in 10.0 mi WNW 17.3 mph 29.9 mph N/A   Mostly Cloudy
3:53 PM 43.0 °F 36.0 °F 7.0 °F 23% 29.98 in 10.0 mi NW 13.8 mph 23.0 mph N/A   Partly Cloudy
4:53 PM 42.1 °F 34.5 °F 6.1 °F 23% 29.99 in 10.0 mi WNW 15.0 mph 28.8 mph N/A   Scattered Clouds
5:53 PM 42.1 °F 35.2 °F 6.1 °F 23% 30.01 in 10.0 mi WNW 12.7 mph 27.6 mph N/A   Partly Cloudy
6:53 PM 42.1 °F 34.9 °F 6.1 °F 23% 30.02 in 10.0 mi WNW 13.8 mph 24.2 mph N/A   Clear
7:53 PM 39.9 °F 34.5 °F 6.1 °F 25% 30.04 in 10.0 mi WNW 8.1 mph - N/A   Clear
9:53 PM 37.9 °F 33.5 °F 8.1 °F 29% 30.08 in 10.0 mi WNW 5.8 mph - N/A   Unknown
10:53 PM 35.1 °F - 10.9 °F 37% 30.10 in 10.0 mi Calm Calm - N/A   Clear
11:53 PM 35.1 °F 25.5 °F 8.1 °F 33% 30.12 in 10.0 mi NNW 15.0 mph 24.2 mph N/A   Clear